Location: Luz Observatory
(34.5000°N, 117.2833°W)
Time: 14:35:52
(UTC-08:00)

Cosmos 1484 Rocket - Visible Passes

Search period start: 31 January 2015 00:00
Search period end: 10 February 2015 00:00
Orbit: 514 x 569 km, 97.4° (Epoch: 30 January)

Date Brightness Start Highest point End Pass type
(mag) Time Alt. Az. Time Alt. Az. Time Alt. Az.
31 Jan 2.8 19:06:53 10° S 19:10:55 82° WSW 19:14:59 10° NNW visible
01 Feb 2.7 19:00:04 10° SSE 19:04:05 82° ENE 19:08:10 10° N visible
02 Feb 2.7 18:53:16 10° SSE 18:57:16 66° ENE 19:01:19 10° N visible
03 Feb 2.9 18:46:31 10° SSE 18:50:27 54° ENE 18:54:26 10° N visible
04 Feb 3.1 18:39:48 10° SSE 18:43:38 43° ENE 18:47:31 10° N visible
04 Feb 6.1 20:17:08 10° WSW 20:18:31 11° W 20:19:39 10° WNW visible
05 Feb 3.4 18:33:07 10° SE 18:36:49 36° ENE 18:40:34 10° N visible
05 Feb 5.9 20:09:23 10° SW 20:11:35 14° W 20:13:36 10° WNW visible
06 Feb 3.6 18:26:28 10° SE 18:29:59 30° ENE 18:33:34 10° NNE visible
06 Feb 5.7 20:01:58 10° SW 20:04:40 17° W 20:07:14 10° NW visible
07 Feb 3.9 18:19:53 10° SE 18:23:09 25° ENE 18:26:32 10° NNE visible
07 Feb 5.4 19:54:41 10° SW 19:57:45 20° W 20:00:43 10° NW visible
08 Feb 4.1 18:13:21 10° ESE 18:16:20 21° ENE 18:19:27 10° NNE visible
08 Feb 5.1 19:47:29 10° SSW 19:50:50 24° W 19:54:08 10° NW visible
09 Feb 4.3 18:06:53 10° ESE 18:09:31 17° ENE 18:12:17 10° NNE visible
09 Feb 4.8 19:40:21 10° SSW 19:43:56 29° W 19:47:28 10° NW visible
